Weather History for 08306 - October, 2012

Change the Weather History Date:

Thursday, October 4, 2012

  Actual Average Record
Temperature  
Mean Temperature 70 °F -  
Max Temperature 83 °F 72 °F - ()
Min Temperature 57 °F 54 °F - ()
Cooling Degree Days 5    
Growing Degree Days 20 (Base 50)    
Moisture  
Dew Point 61 °F    
Average Humidity 76    
Maximum Humidity 100    
Minimum Humidity 37    
Precipitation  
Precipitation 0.00 in 0.08 in - ()
Sea Level Pressure  
Sea Level Pressure 30.05 in    
Wind  
Wind Speed 3 mph ()    
Max Wind Speed 12 mph    
Max Gust Speed -    
Visibility 8.2 miles    
Events      
T = Trace of Precipitation, MM = Missing Value Source: Averaged Metar Reports

Daily Weather History Graph

Daily Weather History Graph

Search for Another Location

Airport or City:

Trip Planner

Search our weather history database for the weather conditions in past years. The results will help you decide how hot, cold, wet, or windy it might be!

Date:

Astronomy

Oct. 04, 2012 Rise Set
Actual Time 7:48 AM CEST 7:26 PM CEST
Civil Twilight 7:21 AM CEST 7:53 PM CEST
Nautical Twilight 6:50 AM CEST 8:24 PM CEST
Astronomical Twilight 6:18 AM CEST 8:55 PM CEST
Moon 9:51 PM CEST (10/4) 11:50 AM CEST (10/4)
Length of Visible Light 12h 31m
Length of Day
11h 38m
Waning Gibbous, 84% of the Moon is Illuminated
Oct 4
Waning Gibbous
Oct 8
Last Quarter
Oct 15
New
Oct 22
First Quarter
Oct 29
Full

Hourly Weather History & Observations

Time (CEST) Temp. Heat Index Dew Point Humidity Pressure Visibility Wind Dir Wind Speed Gust Speed Precip Events Conditions
12:00 AM 60.8 °F - 59.0 °F 94% 30.12 in 6.2 mi NE 3.5 mph - N/A   Partly Cloudy
12:30 AM 62.6 °F - 59.0 °F 88% 30.12 in 6.2 mi NE 2.3 mph - N/A   Partly Cloudy
1:00 AM 60.8 °F - 59.0 °F 94% 30.09 in - NE 3.5 mph - N/A   Clear
1:30 AM 60.8 °F - 59.0 °F 94% 30.09 in - ENE 2.3 mph - N/A   Clear
2:00 AM 59 °F - 55 °F 83% 30.11 in 16 mi Calm Calm - -  
2:00 AM 60.8 °F - 59.0 °F 94% 30.09 in - NE 1.2 mph - N/A   Clear
2:30 AM 59.0 °F - 57.2 °F 94% 30.09 in - North 3.5 mph - N/A   Clear
3:00 AM 60.8 °F - 59.0 °F 94% 30.09 in - NE 1.2 mph - N/A   Clear
3:30 AM 59.0 °F - 57.2 °F 94% 30.06 in 6.2 mi NE 2.3 mph - N/A   Partly Cloudy
4:00 AM 59.0 °F - 57.2 °F 94% 30.06 in 6.2 mi North 2.3 mph - N/A   Scattered Clouds
4:30 AM 59.0 °F - 59.0 °F 100% 30.06 in 6.2 mi NNE 2.3 mph - N/A   Scattered Clouds
5:00 AM 59.0 °F - 57.2 °F 94% 30.06 in 6.2 mi Variable 2.3 mph - N/A   Partly Cloudy
5:30 AM 59.0 °F - 59.0 °F 100% 30.06 in 6.2 mi NE 1.2 mph - N/A   Partly Cloudy
6:00 AM 59.0 °F - 57.2 °F 94% 30.06 in 6.2 mi Variable 1.2 mph - N/A   Partly Cloudy
6:30 AM 59.0 °F - 57.2 °F 94% 30.06 in 6.2 mi NE 2.3 mph - N/A   Partly Cloudy
7:00 AM 59.0 °F - 57.2 °F 94% 30.06 in 6.2 mi Variable 2.3 mph - N/A   Partly Cloudy
7:30 AM 59.0 °F - 57.2 °F 94% 30.06 in 6.2 mi Variable 2.3 mph - N/A   Partly Cloudy
8:00 AM 58 °F - 54 °F 82% 30.07 in 19 mi Calm Calm - -   Scattered Clouds
8:00 AM 59.0 °F - 55.4 °F 88% 30.06 in 6.2 mi Variable 2.3 mph - N/A   Partly Cloudy
8:30 AM 60.8 °F - 59.0 °F 94% 30.06 in 6.2 mi Variable 1.2 mph - N/A   Partly Cloudy
9:00 AM 62.6 °F - 60.8 °F 94% 30.06 in - NNE 1.2 mph - N/A   Clear
9:30 AM 66.2 °F - 62.6 °F 88% 30.06 in - Variable 1.2 mph - N/A   Clear
10:00 AM 68.0 °F - 62.6 °F 83% 30.06 in - Variable 2.3 mph - N/A   Clear
10:30 AM 71.6 °F - 62.6 °F 73% 30.06 in - ENE 3.5 mph - N/A   Clear
11:00 AM 75.2 °F - 62.6 °F 65% 30.06 in - Variable 2.3 mph - N/A   Clear
11:30 AM 75.2 °F - 60.8 °F 61% 30.06 in - NE 2.3 mph - N/A   Clear
12:00 PM 78.8 °F - 57.2 °F 47% 30.06 in - Variable 1.2 mph - N/A   Clear
12:30 PM 78.8 °F - 57.2 °F 47% 30.06 in - Variable 2.3 mph - N/A   Clear
1:00 PM 82.4 °F 82.5 °F 59.0 °F 45% 30.06 in - NE 2.3 mph - N/A   Clear
1:30 PM 82.4 °F 82.0 °F 57.2 °F 42% 30.04 in - Variable 2.3 mph - N/A   Clear
2:00 PM 80 °F - 58 °F 37% 30.05 in 19 mi SW 10.4 mph - -  
2:00 PM 80.6 °F 81.8 °F 62.6 °F 54% 30.04 in - SW 10.4 mph - N/A   Clear
2:30 PM 78.8 °F - 64.4 °F 61% 30.04 in - SW 11.5 mph - N/A   Clear
3:00 PM 78.8 °F - 64.4 °F 61% 30.04 in - SW 9.2 mph - N/A   Clear
3:30 PM 78.8 °F - 64.4 °F 61% 30.04 in - West 6.9 mph - N/A   Clear
4:00 PM 78.8 °F - 64.4 °F 61% 30.01 in - West 8.1 mph - N/A   Clear
4:30 PM 80.6 °F 82.7 °F 66.2 °F 61% 30.01 in - West 6.9 mph - N/A   Clear
5:00 PM 78.8 °F - 66.2 °F 65% 30.01 in 6.2 mi WNW 6.9 mph - N/A   Partly Cloudy
5:30 PM 78.8 °F - 66.2 °F 65% 30.01 in 6.2 mi West 9.2 mph - N/A   Partly Cloudy
6:00 PM 78.8 °F - 66.2 °F 65% 30.01 in 6.2 mi WSW 1.2 mph - N/A   Partly Cloudy
6:30 PM 78.8 °F - 66.2 °F 65% 30.01 in 6.2 mi East 5.8 mph - N/A   Partly Cloudy
7:00 PM 78.8 °F - 62.6 °F 57% 30.01 in - East 6.9 mph - N/A   Clear
7:30 PM 77.0 °F - 62.6 °F 61% 30.01 in - East 5.8 mph - N/A   Clear
8:00 PM 74 °F - 58 °F 48% 30.03 in 12 mi East 6.9 mph - -   Clear
8:00 PM 73.4 °F - 62.6 °F 69% 30.01 in - East 6.9 mph - N/A   Clear
8:30 PM 73.4 °F - 62.6 °F 69% 30.04 in - ENE 6.9 mph - N/A   Clear
9:00 PM 71.6 °F - 64.4 °F 78% 30.04 in - ENE 2.3 mph - N/A   Clear
9:30 PM 69.8 °F - 64.4 °F 83% 30.04 in - ENE 4.6 mph - N/A   Clear
10:00 PM 69.8 °F - 64.4 °F 83% 30.04 in - NE 3.5 mph - N/A   Clear
10:30 PM 68.0 °F - 64.4 °F 88% 30.06 in - NE 4.6 mph - N/A   Clear
11:00 PM 68.0 °F - 64.4 °F 88% 30.06 in - NE 6.9 mph - N/A   Clear
11:30 PM 68.0 °F - 64.4 °F 88% 30.06 in - ENE 2.3 mph - N/A   Clear